"Pseudo-MPEC" for P10ONK8

Created 2019 Jun 20 19:07:17 UT using Find_Orb

Click here for an explanation of pseudo-MPECs

 
 Astrometry: 
     P10ONK8  C2019 06 07+UJb]tU]qZUpByh@7T2x0:W!Cn)-4cPwF$,)AstrometryuAUPrwF51
     P10ONK8  C2019 06 07O:=gI)?YDvZADN$,7.)^2jAaeC;oredacted;mkde23nQFl'Z3%xF51
     P10ONK8  C2019 06 07b)+y7h7#23dQ0mM8D8JW-clickUWS\7gajODO(here[=t^*-H[=(F51
     P10ONK8 |C2019 06 08NwU@AHDR/y/b5GOPfor7Xtfa/]5mgvo#9Q+kaL2cperJtZ_ud6fB807
     P10ONK8 |C2019 06 08dR]tjLgexplanation1H74bB@-)l?l^f3S.=u9'Qq#B)L3=hU]u9807
     P10ONK8 |C2019 06 08)n_FS$ffWltNbIgiQCHv?+,Ijb`?Uj3:j@rV,OI[W1*ET5=R^mKi807

Station data:
(807) Cerro Tololo Observatory, La Serena  (S30.169136 W70.805900)  Chile.
(F51) Pan-STARRS 1, Haleakala  (N20.707235 W156.255910)  US/Hawaii.
   Observers N. Primak, A. Schultz, S. Watters, J. Thiel, T. Goggia. Measurer
   PS1 Science Consortium. 1.8-m Ritchey-Chrétien + CCD.

Orbital elements:  P10ONK8
   Perihelion 2019 Dec 17.698507 +/- 254 TT = 16:45:51 (JD 2458835.198507)
Epoch 2019 Jun  8.0 TT = JDT 2458642.5   Earth MOID: 0.4713   AutoNEOCP
M 313.10121856 +/- 80               (J2000 ecliptic)
n   0.24337905 +/- 0.145            Peri.  212.69623 +/- 60
a   2.54066405 +/- 1.01             Node   136.52054 +/- 28
e   0.4246646 +/- 0.241             Incl.   13.09340 +/- 3.1
P   4.05                   H 19.7   G  0.15   U 11.5  SR
q 1.46173376 +/- 0.251    Q 3.61959434 +/- 5.02
From 6 observations 2019 June 7-8 (20.7 hr); mean residual 0".25
Residuals in arcseconds: 
190607 F51  .63+  .03+    190607 F51  .47-  .06+    190608 807  .11-  .13+    
190607 F51  .17-  .09-    190608 807  .06+  .12+    190608 807  .07+  .25-    

Ephemerides (geocentric):
Date (UTC) HH   RA              Dec         delta   r     elong  mag " sig PA
---- -- -- --  -------------   -----------  ------ ------ -----  --- ---- ---
2019 06 20 19  16 41 24.966   -01 21 50.50  1.1520 2.1021 151.6 22.4 1446 170
2019 06 20 20  16 41 22.289   -01 21 59.10  1.1519 2.1019 151.6 22.4 1455 170
2019 06 20 21  16 41 19.613   -01 22 07.73  1.1518 2.1017 151.5 22.4 1465 170
2019 06 20 22  16 41 16.939   -01 22 16.39  1.1518 2.1015 151.5 22.4 1475 170
2019 06 20 23  16 41 14.266   -01 22 25.07  1.1517 2.1013 151.5 22.4 1485 170
2019 06 21 00  16 41 11.594   -01 22 33.79  1.1516 2.1011 151.4 22.4 1495 170
2019 06 21 01  16 41 08.923   -01 22 42.54  1.1516 2.1009 151.4 22.4 1505 170
2019 06 21 02  16 41 06.253   -01 22 51.32  1.1515 2.1007 151.4 22.4 1515 170
2019 06 21 03  16 41 03.585   -01 23 00.13  1.1514 2.1004 151.3 22.4 1525 170
2019 06 21 04  16 41 00.918   -01 23 08.97  1.1514 2.1002 151.3 22.4 1535 169
2019 06 21 05  16 40 58.252   -01 23 17.85  1.1513 2.1000 151.3 22.4 1545 169
2019 06 21 06  16 40 55.587   -01 23 26.75  1.1512 2.0998 151.2 22.4 1555 169
2019 06 21 07  16 40 52.923   -01 23 35.68  1.1512 2.0996 151.2 22.4 1566 169
2019 06 21 08  16 40 50.261   -01 23 44.64  1.1511 2.0994 151.2 22.4 1576 169
2019 06 21 09  16 40 47.600   -01 23 53.64  1.1510 2.0992 151.1 22.4 1586 169
2019 06 21 10  16 40 44.941   -01 24 02.66  1.1510 2.0990 151.1 22.4 1596 169
2019 06 21 11  16 40 42.282   -01 24 11.71  1.1509 2.0988 151.1 22.4 1607 169
2019 06 21 12  16 40 39.625   -01 24 20.80  1.1509 2.0985 151.0 22.4 1617 169
2019 06 21 13  16 40 36.969   -01 24 29.91  1.1508 2.0983 151.0 22.4 1628 169
2019 06 21 14  16 40 34.315   -01 24 39.06  1.1507 2.0981 151.0 22.4 1638 169
2019 06 21 15  16 40 31.661   -01 24 48.23  1.1507 2.0979 150.9 22.4 1649 169
2019 06 21 16  16 40 29.009   -01 24 57.44  1.1506 2.0977 150.9 22.4 1659 169
2019 06 21 17  16 40 26.359   -01 25 06.68  1.1505 2.0975 150.9 22.4 1670 169
2019 06 21 18  16 40 23.709   -01 25 15.94  1.1505 2.0973 150.9 22.4 1680 169
2019 06 21 19  16 40 21.061   -01 25 25.24  1.1504 2.0971 150.8 22.4 1691 169
2019 06 21 20  16 40 18.414   -01 25 34.57  1.1504 2.0969 150.8 22.4 1702 169
2019 06 21 21  16 40 15.769   -01 25 43.93  1.1503 2.0967 150.8 22.4 1713 169
2019 06 21 22  16 40 13.125   -01 25 53.31  1.1502 2.0964 150.7 22.4 1723 169
2019 06 21 23  16 40 10.482   -01 26 02.73  1.1502 2.0962 150.7 22.4 1734 169
2019 06 22 00  16 40 07.841   -01 26 12.18  1.1501 2.0960 150.7 22.4 1745 169
2019 06 22 01  16 40 05.200   -01 26 21.66  1.1501 2.0958 150.6 22.4 1756 169
2019 06 22 02  16 40 02.562   -01 26 31.17  1.1500 2.0956 150.6 22.4 1767 168
2019 06 22 03  16 39 59.924   -01 26 40.71  1.1499 2.0954 150.6 22.4 1778 168
2019 06 22 04  16 39 57.288   -01 26 50.28  1.1499 2.0952 150.5 22.4 1789 168
2019 06 22 05  16 39 54.654   -01 26 59.88  1.1498 2.0950 150.5 22.4 1800 168
2019 06 22 06  16 39 52.021   -01 27 09.51  1.1498 2.0948 150.5 22.4 1811 168
2019 06 22 07  16 39 49.389   -01 27 19.18  1.1497 2.0945 150.4 22.4 1822 168
2019 06 22 08  16 39 46.758   -01 27 28.87  1.1497 2.0943 150.4 22.4 1834 168
2019 06 22 09  16 39 44.129   -01 27 38.59  1.1496 2.0941 150.4 22.4 1845 168
2019 06 22 10  16 39 41.502   -01 27 48.34  1.1495 2.0939 150.3 22.4 1856 168
2019 06 22 11  16 39 38.875   -01 27 58.12  1.1495 2.0937 150.3 22.4 1867 168
2019 06 22 12  16 39 36.251   -01 28 07.94  1.1494 2.0935 150.3 22.4 1879 168
2019 06 22 13  16 39 33.627   -01 28 17.78  1.1494 2.0933 150.2 22.4 1890 168
2019 06 22 14  16 39 31.005   -01 28 27.65  1.1493 2.0931 150.2 22.4 1902 168
2019 06 22 15  16 39 28.385   -01 28 37.56  1.1493 2.0929 150.2 22.4 1913 168
2019 06 22 16  16 39 25.766   -01 28 47.49  1.1492 2.0926 150.1 22.4 1925 168
2019 06 22 17  16 39 23.148   -01 28 57.46  1.1492 2.0924 150.1 22.4 1936 168
2019 06 22 18  16 39 20.532   -01 29 07.45  1.1491 2.0922 150.1 22.4 1948 168